Regional Weather Roundup
Issued by NWS

Home | Current Version | Previous Version | Graphics & Text | Print | Product List | Glossary On
Versions: 1 2 3 4 5 6 7 8 9 10 11 12 13 14 15 16 17 18 19 20 21 22 23 24 25 26 27 28 29 30 31 32 33 34 35 36 37 38 39 40 41 42 43 44 45 46 47 48 49 50
596
ASUS45 KCYS 031910
RWRWY

WYOMING REGIONAL WEATHER ROUNDUP
NATIONAL WEATHER SERVICE CHEYENNE WY
1200 PM MST SAT DEC 03 2016

NOTE:  "FAIR" INDICATES FEW OR NO CLOUDS BELOW 12,000 FEET
WITH NO SIGNIFICANT WEATHER AND/OR OBSTRUCTIONS TO VISIBILITY.

WYZ001-032000-
YELLOWSTONE NATIONAL PARK

CITY           SKY/WX    TMP DP  RH WIND       PRES   REMARKS
LK YELLOWSTONE   N/A     16  13  88 CALM      30.06F
W YELLOWSTONE  NOT AVBL

$$
WYZ002>013-054>058-071-098>099-032000-
NORTHERN WYOMING

CITY           SKY/WX    TMP DP  RH WIND       PRES   REMARKS
JACKSON        CLOUDY    25  19  80 S13       30.12F WCI  13
CODY           FAIR      37  10  32 W18G28    29.95F WCI  27
GREYBULL       PTSUNNY   37  16  42 S8        29.98F WCI  31
WORLAND        FAIR      34  16  47 VRB3      29.98F
SHERIDAN       CLOUDY    39  27  62 CALM      29.90F
BUFFALO        CLOUDY    39  22  50 N5        29.91S
GILLETTE       CLOUDY    37  21  52 W15       29.90S WCI  28
HULETT         CLOUDY    32  23  69 SW16      29.88F WCI  21
NEWCASTLE      FAIR      30  16  55 W5        29.93S WCI  25

$$
WYZ014>020-022>026-101>103-032000-
CENTRAL WYOMING

CITY           SKY/WX    TMP DP  RH WIND       PRES   REMARKS
BIG PINEY      FAIR      28  12  51 N5        30.08F WCI  23
PINEDALE       FAIR      25  12  58 NW23G31   30.08F WCI  10
DUBOIS         FAIR      28  10  47 NW20G28   29.99F WCI  15
LANDER         FAIR      32   8  36 CALM      29.97F
RIVERTON       FAIR      38  10  31 NW28G43   29.95F WCI  26
CASPER         FAIR      33  12  41 SW29      29.95F WCI  19
DOUGLAS        PTSUNNY   38  12  34 W22G32    29.93F WCI  27

$$
WYZ021-027>030-104>119-032000-
SOUTHERN WYOMING

CITY           SKY/WX    TMP DP  RH WIND       PRES   REMARKS
EVANSTON       CLOUDY    24  12  60 W24G30    30.16S WCI   8
FORT BRIDGER   CLOUDY    28  16  60 W22G32    30.15F WCI  14
ROCK SPRINGS   FAIR      24  12  60 W32G44    30.07F WCI   6
DIXON          CLOUDY    27  14  56 SW10      30.15F WCI  18
RAWLINS        PTSUNNY   24  11  57 SW20G28   30.04F WCI  10
SARATOGA       CLOUDY    25  10  54 SW16G23   30.06F WCI  12
LARAMIE        FAIR      27   6  41 W25G35    29.95F WCI  12
CHEYENNE       PTSUNNY   33   7  33 W12G28    29.94F WCI  24
TORRINGTON     FAIR      41  10  28 W18G28    29.94F
PINE BLUFFS    FAIR      39   9  28 W18G25    29.97F WCI  30

$$




USA.gov is the U.S. government's official web portal to all federal, state and local government web resources and services.